CZ-6A DEB, 56676

Orbit data source: Space-Track

CZ-6A DEB, 56676 is space debris in SSO originally from a launch on Fri, 11 Nov 2022 UTC launched from the Taiyaun Space Center, China (TSC). Debris objects in space refer to the collection of defunct objects orbiting the Earth. Examples of debris include non-operational satellites, rocket bodies, and fragments generated from explosions, collisions, or faulty payload assembly.

Loading next visibility...
Identifier
56676, 2022-151AHC
Orbit
SSO
Country
Flag of CNCN / PRC
Related business
Manufacturer
SAST
Mission
Spacecraft
Bus & Motor
Unknown
Mass
Unknown
Launch date (UTC)
2022-11-11 (4 years ago)
Launch vehicle
Unknown
Launch site
Taiyaun Space Center, China (TSC)
Object type
Payload
Rocket body
Debris
Shape & HBR
Unknown shape, 0.1 m
Radar Cross Section
Small (<0.1 m²)

Expand to show TLE details & history
Last TLE update: 3 days ago

TLE from 3 days ago
0 CZ-6A DEB
1 56676U 22151AHC 26170.28789987  .00000165  00000-0  11800-3 0  9990
2 56676  98.8542 172.9295 0044260 335.6572  24.2507 14.09831655162124
Epoch: 2026-06-19T06:54Z
TLE epoch observation values (Epoch: 2026-06-19T06:54:34.548Z)
Latitude
-0.00009°
Longitude
161.76653°
Altitude
833.653 km
Speed
7.451 km/s
True Right ascension
11h 31m 43s
True Declination
0° 00' 00"
Sunlit
Object was in daylight at epoch
Visualization orbit readout
Latitude
Unknown
Longitude
Unknown
Altitude
Unknown
Speed
Unknown
Apparent Right ascension
Unknown
Apparent Declination
Unknown
Sunlit
N/A
Visualization observer readout
Local Sidereal Time
21:47:49
Azimuth
Unknown
Elevation
Unknown
Doppler factor
Unknown
Orbital elements
Apogee altitude
889.15 km
Perigee altitude
825.104 km
Semi-major axis
7,235.264 km
Eccentricity
0.00443
Inclination
98.8542°
RAAN
172.9295°
Arg. of periapsis
335.6572°
True anomaly
24.46007°
Mean anomaly
24.2507°
Eccentric anomaly
24.35528°
Mean motion
3.52664 °/min
Orbital period
102.08 mins
BSTAR
0.000118
Loading maneuver chart data...
Computing Atmospheric mass density...
Loading historical data...
Loading historical data...
Loading historical data...
Loading historical data...
Loading historical data...
Loading historical data...
Loading historical data...

Documentation

Showing up to 5 results
|